Other Surface Observations
Issued by NWS Charleston, SC

Home | Current Version | Previous Version | Text Only | Print | Product List | Glossary On
Versions: 1 2 3 4 5 6 7 8 9 10 11 12 13 14 15 16 17 18 19 20 21 22 23 24 25 26 27 28 29 30 31 32 33 34 35 36 37 38 39 40 41 42 43 44 45 46 47 48 49 50
000
SXUS52 KCHS 280513
OSOCHS

MARINE OBSERVATIONS
NATIONAL WEATHER SERVICE CHARLESTON SC
100 AM EDT THU JUL 28 2016

...DOWNTOWN CHARLESTON AND HARBOR...

CITY           SKY/WX    TMP DP  RH WIND       PRES   REMARKS
WATERFRONT PRK   N/A     86  80  82 SW5       29.98S HX 101

...LAKE MOULTRIE...

CITY           SKY/WX    TMP DP  RH WIND       PRES   REMARKS
PINOPOLIS        N/A     82  79  89 S5        29.92S HX  93

...LAKE AND SUPPLEMENTAL COASTAL OBSERVATIONS...

STATION/POSITION TIME  TEMP    WIND        PRES    WAVE   SWELL
                       AIR SEA DIR/SP/G            HT/PER HT/PER/DIR
                 (UTC) (F)     (DEG/KT/KT) (MB)    (FT/S) (FT/S/D)
FORT PULASKI     0400   85 88  210/  8/ 11 1016.7R
SAPELO ISLAND    0400   84     200/  9     1017.0S
WINYAH BAY       0345   83     230/  5     1015.0
LAKE MURRAY      0400   88     240/  9/ 11 1014.2F
ACE BASIN NERRS  NOT AVBL


...C-MAN AND BUOY OBSERVATIONS...

STATION/POSITION TIME  TEMP    WIND        PRES    WAVE   SWELL
                       AIR SEA DIR/SP/G            HT/PER HT/PER/DIR
                 (UTC) (F)     (DEG/KT/KT) (MB)    (FT/S) (FT/S/D)
BUOY 41004       0450   86 86  220/ 16/ 17 1015.4S   3/ 5   2/170/ 8
BUOY 41008       0450   86 87  190/ 17/ 21 1016.4S   3/ 4
FOLLY BEACH CMAN 0500   86     220/ 13/ 16 1016.1R
CAPERS NS BUOY   0408   85 84  230/ 14/ 19 1015.6R
FRIPP NS BUOY    0408   87 87  220/ 17/ 23 1015.4R
5E ST. MARYS GA  0501      86                N/A     3/ 4


STATION/POSITION TIME  TEMP    WIND        PRES    WAVE   SWELL
                       AIR SEA DIR/SP/G            HT/PER HT/PER/DIR
                 (UTC) (F)     (DEG/KT/KT) (MB)    (FT/S) (FT/S/D)
FRYING PAN BUOY  0500   85 85  220/ 16/ 17 1014.6F
BUOY 41025       0450   83 84  250/ 19/ 23 1012.9F   3/ 4   2/180/ 7
CAPE LOOKOUT NC  0500   80     240/ 10/ 12 1012.6F
BUOY 41002       0450   84 85  260/ 12/ 14 1016.5F   3/ 6   2/260/ 6
BUOY 41010       0420   85 87  170/ 10/ 12 1018.2F
ST AUGUSTINE FL  0500   81 86  210/  5/  7 1018.9R

$$




USA.gov is the U.S. government's official web portal to all federal, state and local government web resources and services.